TimeEDT,TemperatureF,Dew PointF,Humidity,Sea Level PressureIn,VisibilityMPH,Wind Direction,Wind SpeedMPH,Gust SpeedMPH,PrecipitationIn,Events,Conditions,WindDirDegrees,DateUTC
12:54 AM,70.0,68.0,93,30.03,8.0,WSW,3.5,-,N/A,,Clear,240,2013-07-09 04:54:00
1:54 AM,69.1,66.9,93,30.03,9.0,Calm,Calm,-,N/A,,Clear,0,2013-07-09 05:54:00
2:54 AM,68.0,66.0,93,30.03,7.0,Calm,Calm,-,N/A,,Scattered Clouds,0,2013-07-09 06:54:00
3:54 AM,68.0,66.0,93,30.03,8.0,SSW,3.5,-,N/A,,Clear,210,2013-07-09 07:54:00
4:54 AM,66.9,64.9,93,30.04,8.0,SSW,3.5,-,N/A,,Clear,200,2013-07-09 08:54:00
5:54 AM,66.9,64.9,93,30.05,7.0,Calm,Calm,-,N/A,,Partly Cloudy,0,2013-07-09 09:54:00
6:54 AM,70.0,66.9,90,30.07,8.0,Calm,Calm,-,N/A,,Clear,0,2013-07-09 10:54:00
7:54 AM,72.0,68.0,87,30.08,10.0,Calm,Calm,-,N/A,,Partly Cloudy,0,2013-07-09 11:54:00
8:54 AM,75.9,69.1,79,30.07,10.0,Calm,Calm,-,N/A,,Clear,0,2013-07-09 12:54:00
9:54 AM,78.1,70.0,76,30.06,10.0,South,3.5,-,N/A,,Clear,180,2013-07-09 13:54:00
10:54 AM,80.1,69.1,69,30.06,10.0,Calm,Calm,-,N/A,,Clear,0,2013-07-09 14:54:00
11:54 AM,82.0,70.0,67,30.06,10.0,Calm,Calm,-,N/A,,Clear,0,2013-07-09 15:54:00
12:54 PM,82.9,69.1,63,30.05,10.0,Variable,3.5,-,N/A,,Clear,0,2013-07-09 16:54:00
1:54 PM,84.0,70.0,63,30.03,10.0,SSW,4.6,-,N/A,,Clear,200,2013-07-09 17:54:00
2:54 PM,87.1,66.0,49,30.01,10.0,SE,5.8,-,N/A,,Clear,140,2013-07-09 18:54:00
3:54 PM,82.9,72.0,69,30.01,10.0,West,6.9,-,0.00,Rain,Light Rain,260,2013-07-09 19:54:00
4:54 PM,84.9,72.0,65,30.00,10.0,Calm,Calm,-,0.00,,Clear,0,2013-07-09 20:54:00
5:54 PM,84.0,70.0,63,29.99,10.0,SE,6.9,-,N/A,,Clear,140,2013-07-09 21:54:00
6:54 PM,82.0,71.1,69,29.99,10.0,South,3.5,-,N/A,,Scattered Clouds,170,2013-07-09 22:54:00
7:54 PM,79.0,71.1,77,29.99,9.0,SW,5.8,-,0.00,,Scattered Clouds,230,2013-07-09 23:54:00
8:54 PM,78.1,69.1,74,30.00,9.0,SSW,8.1,-,N/A,,Scattered Clouds,210,2013-07-10 00:54:00
9:54 PM,75.0,68.0,79,30.01,10.0,SSW,4.6,-,N/A,,Scattered Clouds,210,2013-07-10 01:54:00
10:54 PM,73.9,68.0,82,30.01,9.0,SSW,3.5,-,N/A,,Mostly Cloudy,210,2013-07-10 02:54:00
11:54 PM,73.9,68.0,82,30.01,10.0,SSW,5.8,-,N/A,,Mostly Cloudy,210,2013-07-10 03:54:00